Weather History for FAGG - September, 2013

Change the Weather History Date:

Sunday, September 1, 2013

  Actual Average Record
Temperature  
Mean Temperature 54 °F -  
Max Temperature 63 °F 64 °F 81 °F (2014)
Min Temperature 46 °F 47 °F 42 °F (2002)
Degree Days  
Heating Degree Days 10    
Growing Degree Days 4 (Base 50)    
Moisture  
Dew Point 41 °F    
Average Humidity 65    
Maximum Humidity 87    
Minimum Humidity 36    
Precipitation  
Precipitation 0.00 in - - ()
Sea Level Pressure  
Sea Level Pressure 30.15 in    
Wind  
Wind Speed 11 mph ()    
Max Wind Speed 21 mph    
Max Gust Speed -    
Visibility 7.2 miles    
Events      
Averages and records for this station are not official NWS values.
T = Trace of Precipitation, MM = Missing Value Source: Averaged Metar Reports

Daily Weather History Graph

Daily Weather History Graph

Search for Another Location

Airport or City:

Trip Planner

Search our weather history database for the weather conditions in past years. The results will help you decide how hot, cold, wet, or windy it might be!

Date:

Astronomy

Sep. 01, 2013 Rise Set
Actual Time 6:48 AM SAST 6:12 PM SAST
Civil Twilight 6:23 AM SAST 6:37 PM SAST
Nautical Twilight 5:54 AM SAST 7:06 PM SAST
Astronomical Twilight 5:25 AM SAST 7:35 PM SAST
Moon 3:57 AM SAST (9/1) 2:41 PM SAST (9/1)
Length of Visible Light 12h 14m
Length of Day
11h 23m
Waning Crescent, 15% of the Moon is Illuminated
Sep 1
Waning Crescent
Sep 5
New
Sep 12
First Quarter
Sep 19
Full
Sep 27
Last Quarter

Hourly Weather History & Observations

Time (SAST) Temp. Windchill Dew Point Humidity Pressure Visibility Wind Dir Wind Speed Gust Speed Precip Events Conditions
12:00 AM 51.8 °F - 39.2 °F 62% 30.09 in 6.2 mi West 20.7 mph - N/A   Mostly Cloudy
1:00 AM 50.0 °F - 41.0 °F 71% 30.09 in - WNW 11.5 mph - N/A   Clear
2:00 AM 48.2 °F - 41.0 °F 76% 30.09 in 6.2 mi WNW 9.2 mph - N/A   Mostly Cloudy
3:00 AM 48.2 °F - 39.2 °F 71% 30.09 in 6.2 mi WNW 10.4 mph - N/A   Scattered Clouds
4:00 AM 46.4 °F 41.5 °F 39.2 °F 76% 30.09 in 6.2 mi WNW 10.4 mph - N/A   Partly Cloudy
5:00 AM 48.2 °F - 37.4 °F 66% 30.12 in 6.2 mi WNW 10.4 mph - N/A   Partly Cloudy
6:00 AM 46.4 °F 41.5 °F 37.4 °F 71% 30.12 in 6.2 mi WNW 10.4 mph - N/A   Partly Cloudy
7:00 AM 48.2 °F - 37.4 °F 66% 30.15 in 6.2 mi WNW 10.4 mph - N/A   Scattered Clouds
8:00 AM 51 °F - 38 °F 51% 30.17 in 12 mi WNW 11.5 mph - -   Scattered Clouds
8:00 AM 51.8 °F - 37.4 °F 58% 30.15 in 6.2 mi WNW 11.5 mph - N/A   Partly Cloudy
9:00 AM 57.2 °F - 39.2 °F 51% 30.18 in 6.2 mi WNW 16.1 mph - N/A   Partly Cloudy
10:00 AM 55.4 °F - 39.2 °F 54% 30.18 in 6.2 mi West 18.4 mph - N/A   Scattered Clouds
11:00 AM 60 °F - 40 °F 36% 30.20 in 12 mi WNW 19.6 mph - -   Partly Cloudy
11:00 AM 59.0 °F - 41.0 °F 51% 30.18 in 6.2 mi WNW 19.6 mph - N/A   Scattered Clouds
12:00 PM 59.0 °F - 39.2 °F 48% 30.18 in 6.2 mi West 17.3 mph - N/A   Mostly Cloudy
1:00 PM 59.0 °F - 41.0 °F 51% 30.18 in 6.2 mi West 13.8 mph - N/A   Mostly Cloudy
2:00 PM 59 °F - 42 °F 41% 30.18 in 12 mi West 13.8 mph - -   Mostly Cloudy
2:00 PM 59.0 °F - 41.0 °F 51% 30.15 in 6.2 mi West 13.8 mph - N/A   Mostly Cloudy
3:00 PM 57.2 °F - 46.4 °F 67% 30.15 in 6.2 mi SSW 13.8 mph - N/A   Mostly Cloudy
4:00 PM 57.2 °F - 48.2 °F 72% 30.18 in 6.2 mi SW 15.0 mph - N/A   Mostly Cloudy
5:00 PM 57.2 °F - 46.4 °F 67% 30.18 in 6.2 mi SSW 10.4 mph - N/A   Scattered Clouds
6:00 PM 55.4 °F - 46.4 °F 72% 30.18 in 6.2 mi SSE 3.5 mph - N/A   Partly Cloudy
7:00 PM 51.8 °F - 46.4 °F 82% 30.18 in 6.2 mi Variable 1.2 mph - N/A   Partly Cloudy
8:00 PM 49 °F - 44 °F 78% 30.19 in 12 mi NNE 3.5 mph - -   Scattered Clouds
8:00 PM 50.0 °F - 44.6 °F 82% 30.18 in 6.2 mi NNE 3.5 mph - N/A   Partly Cloudy
9:00 PM 48.2 °F - 42.8 °F 82% 30.18 in - North 4.6 mph - N/A   Clear
10:00 PM 46.4 °F 44.3 °F 42.8 °F 87% 30.18 in - NNE 4.6 mph - N/A   Clear
11:00 PM 46.4 °F 45.2 °F 42.8 °F 87% 30.15 in - North 3.5 mph - N/A   Clear